Stations météo

réclame
Mon MeteoGroup
Ansbach/Katterbach, Allemagne (10755): Température de l'air & dewpoint: 12.10.2017 15:00:00 - 18.10.2017 15:00:00 (CEST)Ansbach/Katterbach, Allemagne (10755): Vitesse du vent: 12.10.2017 15:00:00 - 18.10.2017 15:00:00 (CEST)Ansbach/Katterbach, Allemagne (10755): Direction du vent: 12.10.2017 15:00:00 - 18.10.2017 15:00:00 (CEST)Ansbach/Katterbach, Allemagne (10755): reduced air pressure: 12.10.2017 15:00:00 - 18.10.2017 15:00:00 (CEST)Ansbach/Katterbach, Allemagne (10755): visibility: 12.10.2017 15:00:00 - 18.10.2017 15:00:00 (CEST)
Date & Time tt [°C] td [°C] ff [km/h] ff [knt] dd ppp [hPa] vv [km]
18.10.2017 15:00:00 - - - - - - -
18.10.2017 14:00:00 20,3 8,6 9 5 W 1016,8 10
18.10.2017 13:00:00 19,0 10,6 8 4 WSW 1017,2 10
18.10.2017 12:00:00 15,3 15,3 5 3 WSW 1017,7 10
18.10.2017 11:00:00 12,6 12,6 8 4 W 1018,3 10
18.10.2017 10:00:00 10,6 10,6 0 0 N 1018,3 6
18.10.2017 09:00:00 8,8 8,8 0 0 N 1018,5 2,8
18.10.2017 08:00:00 8,4 8,3 0 0 N 1018,1 -
18.10.2017 07:00:00 8,5 8,3 5 3 W 1018,3 0,4
18.10.2017 06:00:00 9,0 9,0 5 3 WSW 1018,4 2,0
18.10.2017 05:00:00 9,0 9,0 0 0 N 1018,2 0,4
18.10.2017 04:00:00 10,2 10,1 0 0 N 1018,7 9
18.10.2017 03:00:00 10,5 10,3 0 0 N 1019,0 10
18.10.2017 02:00:00 10,2 10,1 0 0 N 1019,2 9
18.10.2017 01:00:00 10,7 10,4 0 0 N 1019,6 10
18.10.2017 00:00:00 11,5 11,2 0 0 N 1019,9 10
17.10.2017 23:00:00 12,3 11,2 0 0 N 1020,4 10
17.10.2017 22:00:00 13,8 11,4 0 0 N 1020,8 10
17.10.2017 21:00:00 13,9 11,6 0 0 N 1021,3 10
17.10.2017 20:00:00 15,9 12,0 0 0 N 1021,3 10
17.10.2017 19:00:00 17,2 12,8 0 0 N 1021,3 10
17.10.2017 18:00:00 20,0 12,8 0 0 N 1021,3 10
17.10.2017 17:00:00 21,0 12,0 0 0 N 1020,4 10
17.10.2017 16:00:00 21,2 10,8 5 3 SSE 1021,9 10
17.10.2017 15:00:00 20,7 11,4 0 0 N 1022,6 10
17.10.2017 14:00:00 20,0 11,2 9 5 SE 1023,5 10
17.10.2017 13:00:00 18,5 12,1 5 3 SE 1024,5 10
17.10.2017 12:00:00 17,4 12,3 5 3 SSW 1025,2 10
17.10.2017 11:00:00 15,4 11,8 8 4 S 1025,4 10
17.10.2017 10:00:00 13,9 11,4 5 3 S 1025,9 10
17.10.2017 09:00:00 11,2 10,9 8 4 S 1025,9 10
17.10.2017 08:00:00 10,2 10,0 5 3 S 1025,6 10
17.10.2017 07:00:00 9,0 9,0 5 3 SSW - 2,0
17.10.2017 06:00:00 10,4 10,0 5 3 S - 10
17.10.2017 05:00:00 11,1 10,0 5 3 S 1025,5 10
17.10.2017 04:00:00 11,7 10,3 8 4 SSE 1025,3 10
17.10.2017 03:00:00 12,1 10,5 5 3 S 1025,6 10
17.10.2017 02:00:00 12,4 10,5 0 0 N 1026,0 10
17.10.2017 01:00:00 13,0 10,4 8 4 SSE 1026,0 10
17.10.2017 00:00:00 13,2 10,3 9 5 SSE 1026,5 10
16.10.2017 23:00:00 13,9 11,0 8 4 S 1027,1 10
16.10.2017 22:00:00 14,7 10,7 8 4 S 1027,0 10
16.10.2017 21:00:00 15,7 11,7 8 4 SSE 1027,3 10
16.10.2017 20:00:00 17,3 11,8 5 3 S 1027,3 10
16.10.2017 19:00:00 19,2 11,1 5 3 SE 1027,1 10
16.10.2017 18:00:00 19,9 12,1 5 3 SE 1026,7 10
16.10.2017 17:00:00 21,2 11,8 0 0 N 1026,9 10
16.10.2017 16:00:00 21,4 11,7 8 4 SE 1026,7 10
16.10.2017 15:00:00 21,7 10,9 0 0 N 1027,0 10
16.10.2017 14:00:00 20,8 11,0 8 4 S 1027,0 10
16.10.2017 13:00:00 20,1 11,7 8 4 S 1027,7 10
16.10.2017 12:00:00 18,2 11,8 5 3 S 1027,9 10
16.10.2017 11:00:00 15,3 10,8 5 3 SSE 1028,1 10
16.10.2017 10:00:00 14,0 10,4 5 3 S 1028,3 10
16.10.2017 09:00:00 10,9 9,9 8 4 SSW 1028,2 10
16.10.2017 08:00:00 9,7 9,4 8 4 S 1027,5 10
16.10.2017 07:00:00 10,1 9,9 5 3 SSE 1027,3 10
16.10.2017 06:00:00 10,1 9,6 0 0 N 1027,1 10
16.10.2017 05:00:00 11,0 10,4 5 3 SW 1026,9 10
16.10.2017 04:00:00 11,6 10,8 8 4 SW 1026,3 10
16.10.2017 03:00:00 11,9 11,0 9 5 SSW 1026,7 10
16.10.2017 02:00:00 12,1 11,1 8 4 SW 1026,9 10
16.10.2017 01:00:00 13,0 11,0 5 3 SSW 1026,9 10
16.10.2017 00:00:00 13,6 11,3 5 3 S 1027,2 10
15.10.2017 23:00:00 13,6 11,0 0 0 N 1027,1 10
15.10.2017 22:00:00 13,7 10,7 8 4 S 1027,3 10
15.10.2017 21:00:00 14,3 11,4 9 5 SSE 1027,5 10
15.10.2017 20:00:00 15,4 11,8 8 4 SSE 1027,7 10
15.10.2017 19:00:00 17,2 12,2 8 4 S 1027,5 10
15.10.2017 18:00:00 20,0 12,3 8 4 S 1026,7 10
15.10.2017 17:00:00 21,0 12,1 11 6 SSE 1026,7 10
15.10.2017 16:00:00 21,4 11,3 9 5 SSE 1027,1 10
15.10.2017 15:00:00 20,9 11,2 8 4 SSE 1027,4 10
15.10.2017 14:00:00 20,3 12,2 0 0 N 1028,1 10
15.10.2017 13:00:00 19,2 11,9 8 4 SE 1028,5 10
15.10.2017 12:00:00 17,5 12,6 8 4 SSE 1028,8 10
15.10.2017 11:00:00 15,3 12,2 0 0 N 1029,4 10
15.10.2017 10:00:00 13,5 11,2 5 3 S 1029,6 10
15.10.2017 09:00:00 10,6 10,4 0 0 N 1029,2 9
15.10.2017 08:00:00 9,4 9,3 9 5 SSE 1029,1 4,0
15.10.2017 07:00:00 9,4 9,3 0 0 N 1028,9 5
15.10.2017 06:00:00 9,5 9,3 8 4 S 1028,3 8
15.10.2017 05:00:00 9,5 9,3 8 4 S 1028,3 8
15.10.2017 04:00:00 8,8 8,7 9 5 S 1029,0 5
15.10.2017 03:00:00 9,3 9,2 0 0 N 1029,4 0,8
15.10.2017 02:00:00 9,0 9,0 5 3 S 1029,7 1,6
15.10.2017 01:00:00 10,0 10,0 0 0 N 1029,4 2,0
15.10.2017 00:00:00 12,0 11,0 0 0 N 1029,5 5
14.10.2017 23:00:00 11,5 10,8 0 0 N 1029,7 5
14.10.2017 22:00:00 11,9 11,0 0 0 N 1029,9 6
14.10.2017 21:00:00 13,8 10,8 0 0 N 1030,1 6
14.10.2017 20:00:00 14,5 10,8 5 3 SSE - 8
14.10.2017 19:00:00 16,6 11,3 0 0 N 1029,2 9
14.10.2017 18:00:00 17,8 11,4 5 3 SE 1028,9 6
14.10.2017 17:00:00 18,6 10,7 0 0 N 1029,0 10
14.10.2017 16:00:00 18,7 11,1 0 0 N 1029,0 10
14.10.2017 15:00:00 18,9 11,2 0 0 N 1029,4 10
14.10.2017 14:00:00 17,9 10,4 8 4 S 1029,7 10
14.10.2017 13:00:00 17,6 10,4 8 4 S 1030,4 10
14.10.2017 12:00:00 16,7 10,7 9 5 S 1030,7 10
14.10.2017 11:00:00 15,4 10,8 5 3 S 1030,9 10
14.10.2017 10:00:00 12,4 12,1 5 3 SSW 1031,1 10
14.10.2017 09:00:00 9,5 9,4 0 0 N 1030,4 10
14.10.2017 08:00:00 8,0 8,0 0 0 N 1030,3 5
14.10.2017 07:00:00 7,9 7,8 0 0 N 1030,3 2,0
14.10.2017 06:00:00 8,1 7,9 0 0 N 1030,1 10
14.10.2017 05:00:00 8,7 8,6 0 0 N 1029,9 10
14.10.2017 04:00:00 9,0 8,0 0 0 N 1029,6 1,6
14.10.2017 03:00:00 9,1 8,7 0 0 N 1029,4 10
14.10.2017 02:00:00 9,5 9,1 0 0 N 1029,9 10
14.10.2017 01:00:00 9,8 9,4 5 3 S 1029,6 10
14.10.2017 00:00:00 10,0 10,0 5 3 SSW 1029,8 2,0
13.10.2017 23:00:00 11,3 10,3 0 0 N 1029,8 4,0
13.10.2017 22:00:00 11,4 10,0 0 0 N 1029,8 10
13.10.2017 21:00:00 12,5 10,5 0 0 N 1029,4 10
13.10.2017 20:00:00 13,5 10,6 5 3 WNW 1029,4 10
13.10.2017 19:00:00 14,6 10,6 8 4 W 1028,7 10
13.10.2017 18:00:00 16,2 10,6 8 4 WNW 1028,5 10
13.10.2017 17:00:00 16,8 10,1 9 5 WNW 1028,3 10
13.10.2017 16:00:00 17,1 10,3 13 7 W 1028,3 10
13.10.2017 15:00:00 17,8 10,4 15 8 W 1028,3 10
13.10.2017 14:00:00 16,3 11,6 15 8 WSW 1028,9 10
13.10.2017 13:00:00 15,0 11,7 16 9 WSW 1029,6 10
13.10.2017 12:00:00 14,3 11,7 15 8 W 1029,6 10
13.10.2017 11:00:00 13,9 11,5 16 9 W 1029,6 10
13.10.2017 10:00:00 12,1 10,7 13 7 WSW 1029,4 10
13.10.2017 09:00:00 11,1 10,3 9 5 SW 1029,1 10
13.10.2017 08:00:00 9,7 9,0 11 6 SW 1028,9 10
13.10.2017 07:00:00 9,5 8,9 11 6 SW 1028,6 10
13.10.2017 06:00:00 9,9 9,4 11 6 SSW 1028,4 10
13.10.2017 05:00:00 9,9 9,3 9 5 WSW 1027,8 10
13.10.2017 04:00:00 9,5 8,9 8 4 W 1027,8 10
13.10.2017 03:00:00 10,1 9,2 9 5 SW 1027,8 10
13.10.2017 02:00:00 10,4 9,5 11 6 SW 1028,4 10
13.10.2017 01:00:00 10,4 9,3 0 0 N 1028,0 10
13.10.2017 00:00:00 11,3 9,9 8 4 SSW 1028,2 10
12.10.2017 23:00:00 11,0 9,4 11 6 SW 1027,5 10
12.10.2017 22:00:00 11,4 9,7 11 6 SW 1027,4 10
12.10.2017 21:00:00 11,7 9,9 5 3 SSW 1027,0 10
12.10.2017 20:00:00 12,1 9,8 13 7 SW 1027,2 10
12.10.2017 19:00:00 13,0 10,0 9 5 SW 1026,5 10
12.10.2017 18:00:00 14,1 10,4 16 9 WSW 1026,0 10
12.10.2017 17:00:00 14,6 10,2 24 13 W 1025,3 10
12.10.2017 16:00:00 15,6 9,8 31 17 WSW 1025,1 10
12.10.2017 15:00:00 14,9 10,4 28 15 W 1025,3 10

tt = Température de l'air
td = dewpoint
ff = Vitesse du vent
dd = Direction du vent
ppp = reduced air pressure
vv = visibility

stations d'obs. à proximité